Location: Batang Balui
(2.7000°N, 113.7833°E)
Time: 04:44:05
(UTC+00:00)

Cosmos 1954 Rocket - Pass Details

Date: 08 February 2023
Orbit: 751 x 780 km, 74.0° (Epoch: 26 March)

Event Time Altitude Azimuth Distance (km) Brightness Sun altitude
Exits shadow 20:48:49 55° 188° (S) 902 4.3 -27.3°
Drops below altitude 10° 20:52:55 10° 172° (S) 2,292 6.7 -26.3°
Sets 20:55:18 0° 171° (S) 3,224 7.5 -25.7°
